Back to catalog

STARLINK-35728

AliveCommunicationsVLEO
NORAD 66544·PAYLOAD·🇺🇸 United States

Launched Nov 19, 2025 from Cape Canaveral Space Force Station

Loading…

Next Passes (next 24 hours)

TLE

FreshSource: CelesTrak SupGP

Epoch: Sep 14, 2026, 14:46 UTC

1 66544C 25265AE  26257.61576389  .00033184  00000+0  12020-2 0  2574
2 66544  42.9999 290.7653 0001404 275.3268 301.8911 15.27558510    16

Track STARLINK-35728 in real time with AllMySat

Download on the App Store